SCP
0 0 0 0 0 0 0 0 0 0 0 0 0 0 0 0 0 0 0 0 0 0 0 0 0 0 0 0 0 0 0 0 0 0 0 0 0 0 0 0 0 0 0
0 0 0 0 0 0 0 0 0 0 0 0 0 0 0 0 0 0 0 0 0 0 0 0 0 0 0 0 0 0 0 0 0 0 0 0 0 0 0 0 0 0 0
0 0 0 0 0 0 0 0 0 0 0 0 0 0 0 0 0 0 0 0 0 0 0 0 0 0 0 0 0 0 0 0 0 0 0 0 0 0 0 0 0 0 0
0 0 0 0 0 0 0 0 0 0 0 0 0 0 0 0 0 0 0 0 0 0 0 0 0 0 0 0 0 0 0 0 0 0 0 0 0 0 0 0 0 0 0
0 0 0 0 0 0 0 0 0 0 0 0 0 0 0 0 0 0 0 0 0 0 0 0 0 0 0 0 0 0 0 0 0 0 0 0 0 0 0 0 0 0 0
0 0 0 0 0 0 0 0 0 0 0 0 0 0 0 0 0 0 0 0 0 0 0 0 0 0 0 0 0 0 0 0 0 0 0 0 0 0 0 0 0 0 0
0 0 0 0 0 0 0 0 0 0 0 0 0 0 0 0 0 0 0 0 0 0 0 0 0 0 0 0 0 0 0 0 0 0 0 0 0 0 0 0 0 0 0
0 0 0 0 0 0 0 0 0 0 0 0 0 0 0 0 0 0 0 0 0 0 0 0 0 0 0 0 0 0 0 0 0 0 0 0 0 0 0 0 0 0 0
0 0 0 0 0 0 0 0 0 0 0 0 0 0 0 0 0 0 0 0 0 0 0 0 0 0 0 0 0 0 0 0 0 0 0 0 0 0 0 0 0 0 0
0 0 0 0 0 0 0 0 0 0 0 0 0 0 0 0 0 -0 0 -0 -0 0 -0 0 0 0 0 0 0 0 0 0 0 0 0 0 0 0 0 0 0 0 0
0 0 0 0 0 0 0 0 0 0 0 0 0 0 0 0 0 0 -0 0 -0 -0 -0 -0 0 0 0 0 0 0 0 0 0 0 0 0 0 0 0 0 0 0 0
0 0 0 0 0 0 0 0 0 0 0 0 0 0 0 0 0 0 0 0 -0 0 -0 -0 -0 0 0 0 0 0 0 0 0 0 0 0 0 0 0 0 0 0 0
0 0 0 0 0 0 0 0 0 0 0 0 0 0 0 0 0 0 0 0 0 0 0 -0 -0 -0 0 0 0 0 0 0 0 0 0 0 0 0 0 0 0 0 0
0 0 0 0 0 0 0 0 0 0 0 0 0 0 0 0 0 0 0 0 0 0 0 0 0 -0 -0 -0 0 0 0 0 0 0 0 0 0 0 0 0 0 0 0
0 0 0 0 0 0 0 0 0 0 0 0 0 0 0 0 0 0 0 0 0 0 0 0 0 0 -0 -0 0 0 0 0 0 0 0 0 0 0 0 0 0 0 0
0 0 0 0 0 0 0 0 0 0 0 0 0 0 0 0 0 0 0 0 0 0 0 0 0 0 0 0 0 0 0 0 0 0 0 0 0 0 0 0 0 0 0
0 0 0 0 0 0 0 0 -0 0 0 0 0 0 0 0 0 0 0 0 0 0 0 0 0 0 0 0 0 0 0 0 0 0 0 0 0 0 0 0 0 0 0
0 0 0 0 0 0 0 0 0 -0 -0 0 0 0 0 0 0 0 0 0 0 0 0 0 0 0 0 0 0 0 0 0 0 0 0 0 0 0 0 0 0 0 0
0 -0 -0 0 0 0 0 0 0 0 0 0 -0 0 0 0 0 0 0 0 0 0 0 0 0 0 0 0 0 0 0 0 0 0 0 0 0 0 0 0 0 0 0
-0 0 0 0 0 0 0 0 0 0 0 0 0 0 0 0 0 0 0 0 0 0 0 0 0 0 0 0 0 0 0 0 0 0 0 0 0 0 0 0 0 0 0
0 0 0 0 0 0 0 0 0 0 0 0 0 0 -0 0 0 0 0 0 0 0 0 0 0 0 0 0 0 0 0 0 0 0 0 0 0 0 0 0 0 0 0
0 0 0 0 0 0 0 0 0 0 0 0 0 0 0 0 0 0 0 0 0 0 0 0 0 0 0 0 0 0 0 0 0 0 0 0 0 0 0 0 0 0 0
0 0 0 0 0 0 0 0 0 0 0 0 0 0 0 0 0 0 0 0 0 0 0 0 0 0 0 0 0 0 0 0 0 0 0 0 0 0 0 0 0 0 0
0 0 0 0 0 0 0 0 0 0 0 0 0 0 0 0 0 0 0 0 0 0 0 0 0 0 0 0 0 0 0 0 0 0 0 0 0 0 0 0 0 0 0
0 0 0 0 0 0 0 0 0 0 0 0 0 0 0 0 0 0 0 0 0 0 0 0 0 0 0 0 0 0 0 0 0 0 0 0 0 0 0 0 0 0 0
0 0 0 0 0 0 0 0 0 0 0 0 0 0 0 0 0 0 0 0 0 0 0 0 0 0 0 0 0 0 0 0 0 0 0 0 0 0 0 0 0 0 0
Wind_Speed_500mb
1 2 6 12 18 25 29 32 37 40 43 45 47 51 53 54 56 60 68 71 74 77 77 79 82 81 87 92 95 95 94 88 100 111 98 99 94 90 79 79 84 91 80
8 9 10 10 11 14 20 24 30 36 41 47 51 52 54 56 57 62 64 68 72 76 79 79 82 81 87 88 92 96 97 97 99 111 105 101 107 102 94 91 86 96 93
11 16 22 24 26 26 27 30 32 34 35 37 43 50 55 55 54 55 65 71 73 77 79 81 84 82 87 88 90 98 99 101 107 116 113 103 103 107 105 108 106 101 101
9 10 13 17 18 19 25 28 31 36 40 41 40 42 46 52 56 56 56 65 75 81 84 86 86 87 90 90 95 99 96 100 109 117 110 103 109 118 113 110 112 113 102
20 26 24 25 27 27 29 31 31 33 36 39 42 41 43 43 44 52 57 64 66 74 79 83 87 89 89 89 90 99 97 97 97 91 99 99 113 118 119 107 111 114 96
19 22 25 27 28 31 33 37 37 37 37 38 41 44 45 47 46 45 51 61 68 77 79 79 84 88 90 93 96 94 95 97 102 99 103 101 111 128 134 127 120 108 89
20 24 24 25 27 28 30 32 35 38 40 42 44 47 48 49 50 50 52 56 62 68 75 81 83 82 86 94 90 94 97 95 94 106 120 103 114 130 131 124 117 119 118
18 19 20 20 19 20 23 28 30 33 37 42 46 48 51 52 54 54 55 57 59 61 64 71 81 84 84 77 84 94 97 98 100 88 88 87 103 103 129 132 124 110 110
18 21 25 29 29 31 31 33 35 39 42 44 47 50 53 54 54 54 59 62 63 64 65 62 62 71 83 84 81 90 97 100 91 84 82 80 73 95 110 101 92 109 88
19 22 25 29 32 33 35 36 38 42 45 47 47 49 50 53 54 59 59 63 69 72 74 70 67 63 58 60 72 83 94 88 82 84 79 80 69 60 79 79 83 97 98
22 24 26 29 33 36 38 41 44 46 50 51 54 54 53 56 55 54 57 60 65 72 77 81 76 70 66 56 60 81 81 85 74 75 79 81 66 64 66 57 74 94 103
26 29 31 34 38 43 47 46 48 52 56 58 62 63 59 61 62 60 57 59 62 66 70 74 74 71 74 71 62 69 76 67 64 70 74 59 55 55 54 64 66 87 91
31 35 39 41 44 48 53 55 58 56 60 65 69 74 75 69 67 67 68 63 65 71 73 74 73 68 70 71 65 62 67 70 63 71 64 62 58 53 60 69 80 82 77
40 43 46 49 51 52 54 57 60 61 66 68 69 75 80 82 73 69 69 73 74 73 75 82 84 77 70 66 62 59 59 62 62 66 66 67 71 74 77 80 74 72 73
47 50 53 57 59 60 59 59 61 58 60 62 63 71 79 80 74 71 72 75 74 74 80 83 85 82 79 70 62 59 56 56 59 67 75 77 83 81 81 86 85 84 83
55 56 59 62 64 65 68 71 62 65 62 61 64 63 66 70 72 72 72 72 70 68 76 81 85 81 79 72 63 60 60 62 63 68 72 78 89 93 89 90 92 93 94
62 63 66 66 68 70 71 77 88 74 72 73 72 72 77 83 80 77 75 74 72 70 75 79 81 80 76 70 65 62 62 62 68 69 77 80 89 99 102 99 98 95 93
66 66 69 70 71 72 74 77 81 88 93 86 78 82 83 85 87 87 87 85 85 69 63 69 77 79 79 72 66 63 65 66 64 71 72 77 89 99 97 103 106 106 97
72 73 73 76 76 76 78 81 84 88 92 96 99 94 88 88 92 91 83 79 84 80 73 70 72 76 82 74 72 66 64 69 70 69 76 77 91 99 111 111 116 110 99
77 75 76 79 82 82 82 85 88 90 95 98 100 101 100 100 99 96 92 92 89 86 84 79 72 74 75 78 74 73 70 71 72 73 75 80 89 96 108 108 111 110 101
79 79 77 79 82 84 84 86 89 92 97 101 103 101 95 86 101 102 101 96 93 93 85 76 75 78 80 79 77 75 77 75 76 75 77 79 86 92 98 107 114 109 103
75 77 77 78 80 83 84 85 89 92 97 104 108 106 98 97 103 104 103 99 94 89 85 78 77 75 84 86 81 78 81 84 76 79 77 83 83 90 98 102 104 108 101
71 74 76 78 78 80 83 85 89 92 97 101 104 108 105 103 102 103 103 99 94 91 85 81 81 81 77 83 86 80 83 88 82 72 75 83 86 88 95 101 106 107 101
71 73 75 77 79 82 84 87 90 92 95 99 101 103 102 100 99 99 98 95 91 88 84 81 77 79 74 78 87 84 79 78 84 74 77 80 87 87 91 98 106 111 102
69 73 75 78 80 81 83 86 91 94 95 97 100 99 99 97 96 95 91 91 88 84 81 74 70 73 75 68 84 83 77 74 79 70 79 79 84 85 89 99 108 109 103
70 72 74 76 78 79 81 86 90 93 95 97 97 97 96 95 93 92 85 84 83 78 75 74 70 65 66 73 84 73 69 71 73 67 74 77 82 84 90 96 110 115 108
Wind_Direction_500mb
301 308 304 298 294 288 284 281 280 281 281 281 284 286 285 284 281 277 275 276 276 275 273 273 273 272 268 267 267 269 268 265 253 272 264 268 257 255 245 235 235 238 236
338 331 332 326 313 310 306 302 297 292 286 284 283 280 282 284 283 279 275 273 275 276 276 275 275 274 271 270 269 270 271 269 267 258 266 263 257 255 249 237 237 234 236
279 293 295 298 297 299 299 298 301 305 308 303 294 288 285 282 279 277 280 279 277 276 277 276 275 275 272 270 267 266 266 268 266 260 262 256 252 251 246 238 234 240 232
271 280 283 292 303 309 311 308 308 307 307 308 310 310 301 291 286 280 273 275 276 276 277 275 274 274 273 275 272 270 268 268 264 255 250 247 254 248 238 234 229 228 220
305 305 313 317 317 321 321 321 319 318 318 318 315 313 316 314 303 289 281 272 266 270 272 270 273 274 273 272 275 274 269 269 269 254 256 247 246 238 231 235 231 228 206
293 296 304 306 310 311 313 313 315 317 321 325 326 326 323 319 319 311 292 283 278 271 267 269 273 275 274 274 272 273 273 274 269 267 268 255 249 246 238 237 230 215 197
302 309 309 313 319 318 317 318 324 326 328 327 328 331 332 333 326 318 314 300 285 280 275 269 267 271 277 280 278 275 273 276 280 278 273 273 256 259 250 231 221 221 207
298 302 306 313 315 317 322 320 325 330 333 337 339 334 330 333 336 331 321 313 303 292 284 275 269 266 265 278 286 280 280 280 278 280 289 287 283 271 259 245 236 212 208
301 309 315 318 319 321 320 319 326 328 332 331 331 331 336 340 338 338 334 326 317 310 303 296 288 277 269 265 273 277 275 279 279 279 279 286 287 277 253 227 208 201 190
290 294 298 303 310 316 320 321 327 327 326 325 328 332 336 336 340 345 340 336 328 323 320 315 312 306 302 279 277 279 277 275 279 283 278 292 281 273 253 242 224 205 196
297 303 306 309 312 314 319 324 324 322 321 322 321 325 329 332 337 339 338 336 335 330 323 320 317 315 308 298 275 280 278 274 281 283 284 284 269 252 237 234 228 215 216
302 304 306 306 309 311 314 317 316 318 317 317 317 318 322 324 329 332 331 330 330 329 328 325 315 311 308 299 287 279 286 280 280 281 273 266 254 227 223 228 215 209 208
306 307 308 309 309 312 313 314 313 314 314 315 316 315 316 317 321 324 323 324 324 323 323 323 323 313 304 301 299 294 284 286 282 273 270 254 240 229 224 217 210 211 201
312 311 311 310 309 309 309 312 312 314 314 314 313 312 312 313 318 317 316 317 319 318 317 317 319 323 315 306 305 304 301 295 284 277 265 244 227 219 223 210 202 197 199
317 315 314 312 312 310 309 311 310 313 314 311 313 312 312 312 316 317 316 313 311 312 310 307 311 316 322 318 314 313 308 299 287 275 262 242 225 214 206 206 204 197 196
318 315 314 313 312 311 310 306 306 309 309 309 310 308 308 308 312 312 310 307 302 302 301 298 302 306 310 317 312 307 303 294 286 272 260 248 230 206 207 209 200 198 198
316 315 313 313 313 313 312 312 311 303 307 309 309 310 310 311 311 311 309 306 304 301 294 294 294 296 299 303 307 303 298 296 286 277 264 253 235 216 206 204 202 199 196
315 314 313 312 312 312 312 311 309 310 310 305 302 307 308 309 309 310 311 308 306 303 293 290 289 290 291 293 296 297 296 291 285 275 264 253 237 226 212 204 203 200 196
313 313 313 312 311 311 309 308 308 308 308 308 309 307 307 306 306 306 306 305 303 300 295 289 286 284 287 287 286 287 288 286 283 275 261 252 236 227 218 211 206 202 195
309 310 310 309 309 310 310 309 309 308 307 308 308 310 312 311 307 304 304 305 301 297 295 290 285 282 278 283 283 281 280 280 277 272 264 251 240 231 223 216 210 201 195
309 309 308 306 307 308 308 308 308 308 308 307 307 309 311 306 304 303 303 301 299 299 297 288 278 278 277 275 278 279 276 274 274 271 264 253 242 234 228 220 214 202 193
311 313 312 310 308 308 308 308 309 308 308 307 307 307 308 304 303 302 302 301 300 297 294 288 271 267 274 273 272 271 274 271 269 268 265 255 248 238 230 221 215 203 192
314 313 313 313 312 312 311 311 311 310 309 308 308 307 306 304 303 301 301 301 300 298 294 287 279 261 264 269 271 273 272 267 267 268 264 257 245 237 229 223 215 200 191
316 316 315 315 315 314 312 311 311 310 309 308 307 306 304 303 300 299 299 299 299 297 294 289 282 266 256 269 270 272 274 270 263 264 262 256 244 234 229 222 212 199 187
318 318 317 316 314 314 314 314 314 312 309 306 303 302 301 300 299 298 299 299 298 297 293 291 286 275 259 269 269 273 273 268 263 261 255 250 245 238 229 220 207 191 184
319 318 317 317 317 318 317 316 313 310 307 305 302 299 299 297 298 297 300 299 298 298 294 289 291 286 291 267 262 271 268 264 261 259 252 248 238 228 220 213 198 185 182
Wind_Speed_850mb
1 2 6 12 18 25 29 32 37 40 43 45 47 51 53 54 56 60 68 71 74 77 77 79 82 81 87 92 95 95 94 88 100 111 98 99 94 90 79 79 84 91 80
8 9 10 10 11 14 20 24 30 36 41 47 51 52 54 56 57 62 64 68 72 76 79 79 82 81 87 88 92 96 97 97 99 111 105 101 107 102 94 91 86 96 93
11 16 22 24 26 26 27 30 32 34 35 37 43 50 55 55 54 55 65 71 73 77 79 81 84 82 87 88 90 98 99 101 107 116 113 103 103 107 105 108 106 101 101
9 10 13 17 18 19 25 28 31 36 40 41 40 42 46 52 56 56 56 65 75 81 84 86 86 87 90 90 95 99 96 100 109 117 110 103 109 118 113 110 112 113 102
20 26 24 25 27 27 29 31 31 33 36 39 42 41 43 43 44 52 57 64 66 74 79 83 87 89 89 89 90 99 97 97 97 91 99 99 113 118 119 107 111 114 96
19 22 25 27 28 31 33 37 37 37 37 38 41 44 45 47 46 45 51 61 68 77 79 79 84 88 90 93 96 94 95 97 102 99 103 101 111 128 134 127 120 108 89
20 24 24 25 27 28 30 32 35 38 40 42 44 47 48 49 50 50 52 56 62 68 75 81 83 82 86 94 90 94 97 95 94 106 120 103 114 130 131 124 117 119 118
18 19 20 20 19 20 23 28 30 33 37 42 46 48 51 52 54 54 55 57 59 61 64 71 81 84 84 77 84 94 97 98 100 88 88 87 103 103 129 132 124 110 110
18 21 25 29 29 31 31 33 35 39 42 44 47 50 53 54 54 54 59 62 63 64 65 62 62 71 83 84 81 90 97 100 91 84 82 80 73 95 110 101 92 109 88
19 22 25 29 32 33 35 36 38 42 45 47 47 49 50 53 54 59 59 63 69 72 74 70 67 63 58 60 72 83 94 88 82 84 79 80 69 60 79 79 83 97 98
22 24 26 29 33 36 38 41 44 46 50 51 54 54 53 56 55 54 57 60 65 72 77 81 76 70 66 56 60 81 81 85 74 75 79 81 66 64 66 57 74 94 103
26 29 31 34 38 43 47 46 48 52 56 58 62 63 59 61 62 60 57 59 62 66 70 74 74 71 74 71 62 69 76 67 64 70 74 59 55 55 54 64 66 87 91
31 35 39 41 44 48 53 55 58 56 60 65 69 74 75 69 67 67 68 63 65 71 73 74 73 68 70 71 65 62 67 70 63 71 64 62 58 53 60 69 80 82 77
40 43 46 49 51 52 54 57 60 61 66 68 69 75 80 82 73 69 69 73 74 73 75 82 84 77 70 66 62 59 59 62 62 66 66 67 71 74 77 80 74 72 73
47 50 53 57 59 60 59 59 61 58 60 62 63 71 79 80 74 71 72 75 74 74 80 83 85 82 79 70 62 59 56 56 59 67 75 77 83 81 81 86 85 84 83
55 56 59 62 64 65 68 71 62 65 62 61 64 63 66 70 72 72 72 72 70 68 76 81 85 81 79 72 63 60 60 62 63 68 72 78 89 93 89 90 92 93 94
62 63 66 66 68 70 71 77 88 74 72 73 72 72 77 83 80 77 75 74 72 70 75 79 81 80 76 70 65 62 62 62 68 69 77 80 89 99 102 99 98 95 93
66 66 69 70 71 72 74 77 81 88 93 86 78 82 83 85 87 87 87 85 85 69 63 69 77 79 79 72 66 63 65 66 64 71 72 77 89 99 97 103 106 106 97
72 73 73 76 76 76 78 81 84 88 92 96 99 94 88 88 92 91 83 79 84 80 73 70 72 76 82 74 72 66 64 69 70 69 76 77 91 99 111 111 116 110 99
77 75 76 79 82 82 82 85 88 90 95 98 100 101 100 100 99 96 92 92 89 86 84 79 72 74 75 78 74 73 70 71 72 73 75 80 89 96 108 108 111 110 101
79 79 77 79 82 84 84 86 89 92 97 101 103 101 95 86 101 102 101 96 93 93 85 76 75 78 80 79 77 75 77 75 76 75 77 79 86 92 98 107 114 109 103
75 77 77 78 80 83 84 85 89 92 97 104 108 106 98 97 103 104 103 99 94 89 85 78 77 75 84 86 81 78 81 84 76 79 77 83 83 90 98 102 104 108 101
71 74 76 78 78 80 83 85 89 92 97 101 104 108 105 103 102 103 103 99 94 91 85 81 81 81 77 83 86 80 83 88 82 72 75 83 86 88 95 101 106 107 101
71 73 75 77 79 82 84 87 90 92 95 99 101 103 102 100 99 99 98 95 91 88 84 81 77 79 74 78 87 84 79 78 84 74 77 80 87 87 91 98 106 111 102
69 73 75 78 80 81 83 86 91 94 95 97 100 99 99 97 96 95 91 91 88 84 81 74 70 73 75 68 84 83 77 74 79 70 79 79 84 85 89 99 108 109 103
70 72 74 76 78 79 81 86 90 93 95 97 97 97 96 95 93 92 85 84 83 78 75 74 70 65 66 73 84 73 69 71 73 67 74 77 82 84 90 96 110 115 108
Wind_Direction_850mb
301 308 304 298 294 288 284 281 280 281 281 281 284 286 285 284 281 277 275 276 276 275 273 273 273 272 268 267 267 269 268 265 253 272 264 268 257 255 245 235 235 238 236
338 331 332 326 313 310 306 302 297 292 286 284 283 280 282 284 283 279 275 273 275 276 276 275 275 274 271 270 269 270 271 269 267 258 266 263 257 255 249 237 237 234 236
279 293 295 298 297 299 299 298 301 305 308 303 294 288 285 282 279 277 280 279 277 276 277 276 275 275 272 270 267 266 266 268 266 260 262 256 252 251 246 238 234 240 232
271 280 283 292 303 309 311 308 308 307 307 308 310 310 301 291 286 280 273 275 276 276 277 275 274 274 273 275 272 270 268 268 264 255 250 247 254 248 238 234 229 228 220
305 305 313 317 317 321 321 321 319 318 318 318 315 313 316 314 303 289 281 272 266 270 272 270 273 274 273 272 275 274 269 269 269 254 256 247 246 238 231 235 231 228 206
293 296 304 306 310 311 313 313 315 317 321 325 326 326 323 319 319 311 292 283 278 271 267 269 273 275 274 274 272 273 273 274 269 267 268 255 249 246 238 237 230 215 197
302 309 309 313 319 318 317 318 324 326 328 327 328 331 332 333 326 318 314 300 285 280 275 269 267 271 277 280 278 275 273 276 280 278 273 273 256 259 250 231 221 221 207
298 302 306 313 315 317 322 320 325 330 333 337 339 334 330 333 336 331 321 313 303 292 284 275 269 266 265 278 286 280 280 280 278 280 289 287 283 271 259 245 236 212 208
301 309 315 318 319 321 320 319 326 328 332 331 331 331 336 340 338 338 334 326 317 310 303 296 288 277 269 265 273 277 275 279 279 279 279 286 287 277 253 227 208 201 190
290 294 298 303 310 316 320 321 327 327 326 325 328 332 336 336 340 345 340 336 328 323 320 315 312 306 302 279 277 279 277 275 279 283 278 292 281 273 253 242 224 205 196
297 303 306 309 312 314 319 324 324 322 321 322 321 325 329 332 337 339 338 336 335 330 323 320 317 315 308 298 275 280 278 274 281 283 284 284 269 252 237 234 228 215 216
302 304 306 306 309 311 314 317 316 318 317 317 317 318 322 324 329 332 331 330 330 329 328 325 315 311 308 299 287 279 286 280 280 281 273 266 254 227 223 228 215 209 208
306 307 308 309 309 312 313 314 313 314 314 315 316 315 316 317 321 324 323 324 324 323 323 323 323 313 304 301 299 294 284 286 282 273 270 254 240 229 224 217 210 211 201
312 311 311 310 309 309 309 312 312 314 314 314 313 312 312 313 318 317 316 317 319 318 317 317 319 323 315 306 305 304 301 295 284 277 265 244 227 219 223 210 202 197 199
317 315 314 312 312 310 309 311 310 313 314 311 313 312 312 312 316 317 316 313 311 312 310 307 311 316 322 318 314 313 308 299 287 275 262 242 225 214 206 206 204 197 196
318 315 314 313 312 311 310 306 306 309 309 309 310 308 308 308 312 312 310 307 302 302 301 298 302 306 310 317 312 307 303 294 286 272 260 248 230 206 207 209 200 198 198
316 315 313 313 313 313 312 312 311 303 307 309 309 310 310 311 311 311 309 306 304 301 294 294 294 296 299 303 307 303 298 296 286 277 264 253 235 216 206 204 202 199 196
315 314 313 312 312 312 312 311 309 310 310 305 302 307 308 309 309 310 311 308 306 303 293 290 289 290 291 293 296 297 296 291 285 275 264 253 237 226 212 204 203 200 196
313 313 313 312 311 311 309 308 308 308 308 308 309 307 307 306 306 306 306 305 303 300 295 289 286 284 287 287 286 287 288 286 283 275 261 252 236 227 218 211 206 202 195
309 310 310 309 309 310 310 309 309 308 307 308 308 310 312 311 307 304 304 305 301 297 295 290 285 282 278 283 283 281 280 280 277 272 264 251 240 231 223 216 210 201 195
309 309 308 306 307 308 308 308 308 308 308 307 307 309 311 306 304 303 303 301 299 299 297 288 278 278 277 275 278 279 276 274 274 271 264 253 242 234 228 220 214 202 193
311 313 312 310 308 308 308 308 309 308 308 307 307 307 308 304 303 302 302 301 300 297 294 288 271 267 274 273 272 271 274 271 269 268 265 255 248 238 230 221 215 203 192
314 313 313 313 312 312 311 311 311 310 309 308 308 307 306 304 303 301 301 301 300 298 294 287 279 261 264 269 271 273 272 267 267 268 264 257 245 237 229 223 215 200 191
316 316 315 315 315 314 312 311 311 310 309 308 307 306 304 303 300 299 299 299 299 297 294 289 282 266 256 269 270 272 274 270 263 264 262 256 244 234 229 222 212 199 187
318 318 317 316 314 314 314 314 314 312 309 306 303 302 301 300 299 298 299 299 298 297 293 291 286 275 259 269 269 273 273 268 263 261 255 250 245 238 229 220 207 191 184
319 318 317 317 317 318 317 316 313 310 307 305 302 299 299 297 298 297 300 299 298 298 294 289 291 286 291 267 262 271 268 264 261 259 252 248 238 228 220 213 198 185 182